Weather History for Keahole Point, HI

Change the Weather History Date:

Wednesday, November 14, 2012

  Actual Average Record
Temperature  
Mean Temperature 76 °F -  
Max Temperature 84 °F 82 °F 90 °F (1983)
Min Temperature 69 °F 70 °F 68 °F (1993)
Cooling Degree Days 12    
Growing Degree Days 26 (Base 50)    
Moisture  
Dew Point 62 °F    
Average Humidity 59    
Maximum Humidity 73    
Minimum Humidity 45    
Precipitation  
Precipitation 0.00 in - - ()
Sea Level Pressure  
Sea Level Pressure 30.04 in    
Wind  
Wind Speed 6 mph (East)    
Max Wind Speed 13 mph    
Max Gust Speed -    
Visibility 10 miles    
Events      
Averages and records for this station are not official NWS values.
T = Trace of Precipitation, MM = Missing Value Source: NWS Daily Summary

Daily Weather History Graph

Daily Weather History Graph

Search for Another Location

Airport:

Trip Planner

Search our weather history database for the weather conditions in past years. The results will help you decide how hot, cold, wet, or windy it might be!

Date:

Astronomy

Nov. 14, 2012 Rise Set
Actual Time 6:32 AM HST 5:44 PM HST
Civil Twilight 6:09 AM HST 6:07 PM HST
Nautical Twilight 5:42 AM HST 6:34 PM HST
Astronomical Twilight 5:16 AM HST 7:00 PM HST
Moon 7:27 AM HST (11/14) 6:52 PM HST (11/14)
Length of Visible Light 11h 58m
Length of Day
11h 12m
New Moon, 2% of the Moon is Illuminated
Nov 14
New Moon
Nov 20
First Quarter
Nov 28
Full
Dec 6
Last Quarter
Dec 12
New

Hourly Weather History & Observations

Time (HST) Temp. Heat Index Dew Point Humidity Pressure Visibility Wind Dir Wind Speed Gust Speed Precip Events Conditions
12:53 AM 75.0 °F - 59.0 °F 57% 30.06 in 10.0 mi SE 6.9 mph - N/A   Clear
1:53 AM 75.0 °F - 59.0 °F 57% 30.06 in 10.0 mi NE 5.8 mph - N/A   Clear
2:53 AM 73.9 °F - 61.0 °F 64% 30.05 in 10.0 mi NE 5.8 mph - N/A   Clear
3:53 AM 72.0 °F - 59.0 °F 64% 30.05 in 10.0 mi ENE 6.9 mph - N/A   Clear
4:53 AM 73.0 °F - 57.0 °F 57% 30.05 in 10.0 mi ENE 3.5 mph - N/A   Scattered Clouds
5:53 AM 71.1 °F - 59.0 °F 66% 30.05 in 10.0 mi East 4.6 mph - N/A   Clear
6:41 AM 69.8 °F - 60.8 °F 73% 30.06 in 10.0 mi NNE 5.8 mph - N/A   Mostly Cloudy
6:53 AM 71.1 °F - 60.1 °F 68% 30.06 in 10.0 mi ENE 3.5 mph - N/A   Mostly Cloudy
7:10 AM 71.6 °F - 60.8 °F 69% 30.06 in 10.0 mi ESE 4.6 mph - N/A   Scattered Clouds
7:53 AM 77.0 °F - 62.1 °F 60% 30.08 in 10.0 mi NE 3.5 mph - N/A   Clear
8:53 AM 79.0 °F - 62.1 °F 56% 30.07 in 10.0 mi Variable 4.6 mph - N/A   Clear
9:53 AM 81.0 °F 82.2 °F 63.0 °F 54% 30.07 in 10.0 mi SW 8.1 mph - N/A   Clear
10:53 AM 82.0 °F 83.1 °F 63.0 °F 52% 30.06 in 10.0 mi SSW 9.2 mph - N/A   Clear
11:53 AM 82.9 °F 84.4 °F 64.0 °F 53% 30.04 in 10.0 mi South 10.4 mph - N/A   Clear
12:53 PM 82.9 °F 85.0 °F 66.0 °F 56% 30.02 in 10.0 mi South 11.5 mph - N/A   Partly Cloudy
1:53 PM 84.0 °F 86.3 °F 66.0 °F 55% 30.00 in 10.0 mi SW 12.7 mph - N/A   Clear
2:53 PM 82.0 °F 83.8 °F 64.9 °F 56% 30.01 in 10.0 mi SW 10.4 mph - N/A   Overcast
3:53 PM 81.0 °F 82.7 °F 64.9 °F 58% 30.01 in 10.0 mi West 5.8 mph - 0.00 in   Mostly Cloudy
4:53 PM 81.0 °F 82.7 °F 64.9 °F 58% 30.01 in 10.0 mi West 6.9 mph - N/A   Scattered Clouds
5:53 PM 80.1 °F 81.7 °F 64.0 °F 58% 30.02 in 10.0 mi NW 9.2 mph - N/A   Mostly Cloudy
6:53 PM 79.0 °F - 55.9 °F 45% 30.01 in 10.0 mi NE 8.1 mph - N/A   Clear
7:53 PM 77.0 °F - 62.1 °F 60% 30.03 in 10.0 mi East 8.1 mph - N/A   Clear
8:53 PM 77.0 °F - 57.9 °F 52% 30.05 in 10.0 mi North 5.8 mph - N/A   Clear
9:53 PM 75.9 °F - 62.1 °F 62% 30.06 in 10.0 mi North 4.6 mph - N/A   Clear
10:53 PM 75.9 °F - 62.1 °F 62% 30.06 in 10.0 mi SSW 3.5 mph - N/A   Clear
11:53 PM 78.1 °F - 63.0 °F 60% 30.05 in 10.0 mi SSE 3.5 mph - N/A   Overcast